Location: Banksville Park
(38.5557°N, 75.1182°W)
Time: 05:58:32
(UTC+00:00)

CENTAUR R/B - Pass Details

Date: 26 January 2021
Orbit: 742 x 1446 km, 63.5° (Epoch: 01 March)

Event Time Altitude Azimuth Distance (km) Brightness Sun altitude
Exits shadow 09:36:18 - 182° (S) 3,131 5.2 -30.2°
Reaches altitude 10° 09:38:23 10° 173° (S) 2,415 4.6 -29.8°
Maximum altitude 09:43:18 33° 111° (ESE) 1,478 3.9 -28.8°
Drops below altitude 10° 09:48:56 10° 50° (NE) 2,795 5.4 -27.7°
Sets 09:52:01 0° 41° (NE) 3,873 6.1 -27.1°
